Weather History for Jackson, MS

Change the Weather History Date:

Sunday, May 19, 2013

  Actual Average Record
Temperature  
Mean Temperature 79 °F 73 °F  
Max Temperature 88 °F 84 °F 94 °F (1951)
Min Temperature 70 °F 63 °F 46 °F (2007)
Degree Days  
Heating Degree Days 0 0  
Month to date heating degree days 52 10  
Since 1 July heating degree days 2309 2389  
Cooling Degree Days 14 8  
Month to date cooling degree days 77 120  
Year to date cooling degree days 185 238  
Growing Degree Days 29 (Base 50)    
Moisture  
Dew Point 69 °F    
Average Humidity 76    
Maximum Humidity 97    
Minimum Humidity 55    
Precipitation  
Precipitation 0.00 in 0.14 in 3.65 in (1930)
Month to date precipitation 4.39 2.68  
Year to date precipitation 32.16 22.41  
Sea Level Pressure  
Sea Level Pressure 29.97 in    
Wind  
Wind Speed 10 mph (South)    
Max Wind Speed 16 mph    
Max Gust Speed 21 mph    
Visibility 9 miles    
Events      
T = Trace of Precipitation, MM = Missing Value Source: NWS Daily Summary

Daily Weather History Graph

Daily Weather History Graph

Search for Another Location

Airport:

Trip Planner

Search our weather history database for the weather conditions in past years. The results will help you decide how hot, cold, wet, or windy it might be!

Date:

Astronomy

May. 19, 2013 Rise Set
Actual Time 5:59 AM CDT 7:54 PM CDT
Civil Twilight 5:32 AM CDT 8:21 PM CDT
Nautical Twilight 4:59 AM CDT 8:54 PM CDT
Astronomical Twilight 4:24 AM CDT 9:29 PM CDT
Moon 2:17 PM CDT 2:02 AM CDT
Length of Visible Light 14h 49m
Length of Day
13h 54m
Waxing Gibbous, 65% of the Moon is Illuminated
May 19
Waxing Gibbous
May 24
Full
May 31
Last Quarter
Jun 8
New
Jun 16
First Quarter

Hourly Weather History & Observations

Time (CDT) Temp. Heat Index Dew Point Humidity Pressure Visibility Wind Dir Wind Speed Gust Speed Precip Events Conditions
12:54 AM 75.0 °F - 69.1 °F 82% 29.95 in 9.0 mi South 8.1 mph - N/A   Clear
1:54 AM 73.0 °F - 69.1 °F 87% 29.94 in 9.0 mi South 9.2 mph - N/A   Clear
2:54 AM 72.0 °F - 69.1 °F 91% 29.95 in 8.0 mi South 9.2 mph - N/A   Clear
3:54 AM 71.1 °F - 68.0 °F 90% 29.97 in 8.0 mi South 9.2 mph - N/A   Clear
4:54 AM 70.0 °F - 68.0 °F 93% 29.99 in 6.0 mi South 5.8 mph - N/A   Clear
5:11 AM 71.6 °F - 68.0 °F 88% 30.00 in 6.0 mi SSE 8.1 mph - N/A   Partly Cloudy
5:26 AM 71.6 °F - 69.8 °F 94% 29.99 in 6.0 mi SSE 9.2 mph - N/A   Mostly Cloudy
5:54 AM 71.1 °F - 68.0 °F 90% 29.98 in 7.0 mi South 9.2 mph - N/A   Mostly Cloudy
6:24 AM 71.6 °F - 69.8 °F 94% 29.99 in 6.0 mi South 9.2 mph - N/A   Scattered Clouds
6:54 AM 71.6 °F - 69.8 °F 94% 29.99 in 6.0 mi South 9.2 mph - N/A   Clear
7:08 AM 73.4 °F - 69.8 °F 88% 29.99 in 6.0 mi South 10.4 mph - N/A   Scattered Clouds
7:18 AM 73.4 °F - 69.8 °F 88% 30.00 in 7.0 mi South 9.2 mph - N/A   Mostly Cloudy
7:28 AM 73.4 °F - 69.8 °F 88% 30.00 in 7.0 mi South 8.1 mph - N/A   Mostly Cloudy
7:54 AM 73.0 °F - 69.1 °F 87% 29.99 in 7.0 mi South 10.4 mph - N/A   Overcast
8:54 AM 75.0 °F - 69.1 °F 82% 30.00 in 9.0 mi South 9.2 mph - N/A   Overcast
9:01 AM 75.2 °F - 69.8 °F 83% 30.02 in 9.0 mi South 11.5 mph - N/A   Overcast
9:54 AM 77.0 °F - 69.1 °F 76% 30.01 in 10.0 mi South 10.4 mph - N/A   Mostly Cloudy
10:54 AM 79.0 °F - 69.1 °F 72% 30.01 in 10.0 mi SSW 10.4 mph - N/A   Mostly Cloudy
11:22 AM 80.6 °F 83.9 °F 69.8 °F 70% 30.02 in 10.0 mi SSW 11.5 mph - N/A   Scattered Clouds
11:54 AM 82.0 °F 85.5 °F 69.1 °F 65% 29.99 in 10.0 mi South 9.2 mph - N/A   Partly Cloudy
12:54 PM 84.9 °F 88.8 °F 69.1 °F 59% 29.98 in 10.0 mi SSW 10.4 mph - N/A   Scattered Clouds
1:54 PM 84.2 °F 87.3 °F 68.0 °F 58% 29.98 in 10.0 mi South 11.5 mph - N/A   Scattered Clouds
2:54 PM 86.0 °F 89.4 °F 68.0 °F 55% 29.96 in 10.0 mi South 8.1 mph - N/A   Partly Cloudy
3:54 PM 86.0 °F 89.4 °F 68.0 °F 55% 29.94 in 10.0 mi South 10.4 mph - N/A   Partly Cloudy
4:54 PM 86.0 °F 89.4 °F 68.0 °F 55% 29.93 in 10.0 mi South 12.7 mph - N/A   Scattered Clouds
5:54 PM 86.0 °F 89.4 °F 68.0 °F 55% 29.92 in 10.0 mi South 12.7 mph - N/A   Scattered Clouds
6:54 PM 84.0 °F 87.8 °F 69.1 °F 61% 29.92 in 10.0 mi SSE 9.2 mph - N/A   Partly Cloudy
7:54 PM 79.0 °F - 71.1 °F 77% 29.93 in 10.0 mi SE 6.9 mph - N/A   Partly Cloudy
8:54 PM 78.1 °F - 70.0 °F 76% 29.93 in 10.0 mi SSE 9.2 mph - N/A   Partly Cloudy
9:54 PM 77.0 °F - 70.0 °F 79% 29.95 in 10.0 mi SSE 10.4 mph - N/A   Partly Cloudy
10:54 PM 75.2 °F - 69.8 °F 83% 29.96 in 10.0 mi SSE 10.4 mph - N/A   Partly Cloudy
11:54 PM 75.0 °F - 70.0 °F 84% 29.96 in 10.0 mi SSE 8.1 mph - N/A   Clear